{"data":{"norad_id":65837,"intl_designator":"2025-221Q","name":"STARLINK-35314","alt_names":[],"object_type":"PAYLOAD","status":"ACTIVE","operator":null,"country":"US","launch_date":"2025-09-29","launch_site_code":"AFWTR","launch_vehicle":null,"mission":null,"orbit_class":"UNKNOWN","rcs_meters":null,"size_class":null,"mass_kg":null,"dimensions":null,"purposes":["comms"],"wikipedia_slug":null,"has_3d_model":false,"image_url":null,"decayed_at":null,"tle_current":{"epoch":"2026-09-20T12:06:18.877824Z","epoch_age_seconds":105735,"freshness":"FRESH","line1":"1 65837U 25221Q   26263.50438516  .00013788  00000+0  41826-3 0  9992","line2":"2 65837  53.1572 259.6756 0001380  87.2015 272.9145 15.34415070 54615","mean_motion":15.3441507,"eccentricity":0.000138,"inclination_deg":53.1572,"raan_deg":259.6756,"arg_perigee_deg":87.2015,"mean_anomaly_deg":272.9145,"bstar":0.00041826,"rev_number":5461,"period_min":93.846836371335,"perigee_km":461.71441958583,"apogee_km":463.60247912985,"semimajor_km":6840.7954493578,"source":"CELESTRAK","updated_at":"2026-09-21T09:00:35.722073Z"}}}